This demonstration page uses our WeatherBlox Daily Observations layout. Learn more.

Left ArrowRight Arrow

34.16533, -84.80231

Hourly Observations for August 8, 2020

Temp ( °F °C ) Dew Point ( °F °C ) Humidity (%) Winds ( mph kmh ) Pressure ( in mb ) Visibility ( mi km ) Precip ( " mm )
12:53 am 00:53 Clear 72 22.2 68 20 87 87 Calm 30.09 1019 10 16 0.00 0.00
1:53 am 01:53 Clear 70 21.1 67 19.4 90 90 Calm 30.08 1019 9 14 0.00 0.00
2:53 am 02:53 Clear 70 21.1 67 19.4 90 90 Calm 30.08 1019 9 14 0.00 0.00
3:53 am 03:53 Clear 69 20.6 66 18.9 90 90 Calm 30.08 1019 9 14 0.00 0.00
4:53 am 04:53 Clear 69 20.6 66 18.9 90 90 Calm 30.08 1019 8 13 0.00 0.00
5:53 am 05:53 Clear 68 20 66 18.9 93 93 Calm 30.10 1019 8 13 0.00 0.00
6:53 am 06:53 Clear 68 20 66 18.9 93 93 Calm 30.12 1020 7 11 0.00 0.00
7:53 am 07:53 Sunny 70 21.1 67 19.4 90 90 Calm 30.13 1020 7 11 0.00 0.00
8:53 am 08:53 Sunny 76 24.4 69 20.6 79 79 Calm 30.14 1021 10 16 0.00 0.00
9:53 am 09:53 Sunny 81 27.2 70 21.1 69 69 NE 3 6 30.14 1021 10 16 0.00 0.00
10:53 am 10:53 Sunny 85 29.4 70 21.1 61 61 VRB 5 7 30.14 1021 10 16 0.00 0.00
11:53 am 11:53 Sunny 89 31.7 71 21.7 55 55 Calm 30.14 1021 10 16 0.00 0.00
12:53 pm 12:53 Sunny 91 32.8 68 20 47 47 VRB 5 7 30.13 1020 10 16 0.00 0.00
1:53 pm 13:53 Mostly Sunny 93 33.9 66 18.9 41 41 VRB 5 7 30.12 1020 10 16 0.00 0.00
2:53 pm 14:53 Mostly Sunny 94 34.4 65 18.3 38 38 undefined N/A 30.09 1019 10 16 0.00 0.00
3:53 pm 15:53 Mostly Cloudy 94 34.4 65 18.3 38 38 Calm 30.07 1018 10 16 0.00 0.00
4:53 pm 16:53 Mostly Cloudy 94 34.4 64 17.8 37 37 VRB 5 7 30.06 1018 10 16 0.00 0.00
5:53 pm 17:53 Partly Cloudy 92 33.3 65 18.3 41 41 SSE 5 7 30.06 1018 10 16 0.00 0.00
6:53 pm 18:53 Mostly Cloudy with Light Rain 80 26.7 70 21.1 71 71 VRB 6 9 30.08 1019 10 16 0.02 0.51
7:00 pm 19:00 Cloudy with Strong Thunderstorms 78 25.6 68 20 71 71 SW 7 11 30.09 1019 2 3 0.07 1.78
7:08 pm 19:08 Cloudy with Thunderstorms 76 24.4 69 20.6 79 79 SSW 8 13 30.09 1019 2 3 0.08 2.03
7:10 pm 19:10 Cloudy with Thunderstorms 75 23.9 69 20.6 82 82 SSW 7 11 30.08 1019 3 5 0.08 2.03
7:21 pm 19:21 Mostly Cloudy with Nearby Thunderstorms 75 23.9 70 21.1 84 84 SSW 5 7 30.09 1019 10 16 0.08 2.03
7:53 pm 19:53 Mostly Cloudy with Nearby Thunderstorms 78 25.6 70 21.1 76 76 Calm 30.10 1019 9 14 0.08 2.03
8:07 pm 20:07 Mostly Cloudy 78 25.6 70 21.1 76 76 Calm 30.10 1019 10 16 0.00 0.00
8:53 pm 20:53 Mostly Clear 75 23.9 71 21.7 88 88 Calm 30.09 1019 10 16 0.01 0.25
9:53 pm 21:53 Clear 73 22.8 70 21.1 90 90 S 3 6 30.09 1019 7 11 0.00 0.00
10:53 pm 22:53 Clear 73 22.8 70 21.1 90 90 Calm 30.11 1020 7 11 0.00 0.00
11:53 pm 23:53 Mostly Cloudy 73 22.8 70 21.1 90 90 Calm 30.11 1020 8 13 0.00 0.00

Powered by AerisWeather